Location: Proctor
(47.8934°N, 114.3048°W)
Time: 23:09:39
(UTC+00:00)

Explorer 7 - All Passes

Search period start: 15 June 2024 00:00
Search period end: 25 June 2024 00:00
Orbit: 466 x 623 km, 50.3° (Epoch: 15 June)

Date Brightness Start Highest point End Pass type
(mag) Time Alt. Az. Time Alt. Az. Time Alt. Az.
15 Jun - 00:10:53 10° W 00:14:31 57° N 00:18:07 10° E daylight
15 Jun - 01:50:40 10° WNW 01:54:20 86° SSW 01:57:59 10° ESE daylight
15 Jun - 03:30:42 10° W 03:33:37 23° SW 03:36:34 10° SSE daylight
15 Jun - 20:44:39 10° SSW 20:47:58 28° SE 20:51:13 10° E daylight
15 Jun - 22:23:37 10° WSW 22:27:23 84° NNW 22:31:04 10° ENE daylight
16 Jun - 00:03:34 10° WNW 00:07:13 58° N 00:10:50 10° E daylight
16 Jun - 01:43:20 10° WNW 01:46:59 74° SSW 01:50:38 10° ESE daylight
16 Jun - 03:23:38 10° W 03:26:10 18° SW 03:28:43 10° S daylight
16 Jun - 20:37:00 10° SW 20:40:32 35° SSE 20:43:58 10° E daylight
16 Jun - 22:16:16 10° W 22:20:02 74° NNW 22:23:43 10° ENE daylight
16 Jun - 23:56:15 10° WNW 23:59:55 60° N 00:03:31 10° E daylight
17 Jun - 01:36:00 10° WNW 01:39:36 61° SSW 01:43:12 10° SE daylight
17 Jun - 03:16:44 10° WSW 03:18:41 14° SW 03:20:37 10° S daylight
17 Jun - 20:29:25 10° SW 20:33:06 44° SSE 20:36:40 10° ENE daylight
17 Jun - 22:08:55 10° W 22:12:41 67° N 22:16:21 10° ENE daylight
17 Jun - 23:48:53 10° WNW 23:52:34 64° N 23:56:12 10° E daylight
18 Jun - 01:28:38 10° WNW 01:32:11 49° SSW 01:35:43 10° SE daylight
18 Jun - 03:10:24 10° WSW 03:11:08 10° SW 03:11:52 10° SW daylight
18 Jun - 18:44:45 10° SSE 18:46:35 13° SE 18:48:23 10° ESE daylight
18 Jun - 20:21:51 10° SW 20:25:39 54° SSE 20:29:18 10° ENE daylight
18 Jun - 22:01:33 10° W 22:05:19 62° N 22:08:59 10° ENE daylight
18 Jun - 23:41:29 10° WNW 23:45:12 69° NNE 23:48:50 10° E daylight
19 Jun - 01:21:17 10° WNW 01:24:43 39° SSW 01:28:08 10° SE daylight
19 Jun - 18:36:27 10° S 18:39:01 17° SE 18:41:31 10° E daylight
19 Jun - 20:14:19 10° WSW 20:18:12 66° SSE 20:21:55 10° ENE daylight
19 Jun - 21:54:10 10° W 21:57:55 59° N 22:01:35 10° ENE daylight
19 Jun - 23:34:04 10° WNW 23:37:47 77° NNE 23:41:26 10° ESE daylight
20 Jun - 01:13:56 10° W 01:17:13 31° SW 01:20:29 10° SSE daylight
20 Jun - 18:28:23 10° S 18:31:27 21° SE 18:34:24 10° E daylight
20 Jun - 20:06:49 10° WSW 20:10:44 79° SSE 20:14:29 10° ENE daylight
20 Jun - 21:46:45 10° W 21:50:32 58° N 21:54:09 10° ENE daylight
20 Jun - 23:26:37 10° WNW 23:30:21 88° NNE 23:34:00 10° ESE daylight
21 Jun - 01:06:37 10° W 01:09:40 25° SW 01:12:43 10° SSE daylight
21 Jun - 18:20:29 10° SSW 18:23:52 26° SE 18:27:08 10° E daylight
21 Jun - 19:59:19 10° WSW 20:03:16 89° NNE 20:07:01 10° ENE daylight
21 Jun - 21:39:19 10° W 21:43:05 58° N 21:46:44 10° E daylight
21 Jun - 23:19:08 10° WNW 23:22:52 80° SSW 23:26:31 10° ESE daylight
22 Jun - 00:59:21 10° W 01:02:05 20° SW 01:04:48 10° S daylight
22 Jun - 18:12:39 10° SSW 18:16:17 33° SE 18:19:47 10° E daylight
22 Jun - 19:51:49 10° WSW 19:55:46 79° NNW 19:59:32 10° ENE daylight
22 Jun - 21:31:51 10° WNW 21:35:38 59° N 21:39:17 10° E daylight
22 Jun - 23:11:39 10° WNW 23:15:22 67° SSW 23:18:58 10° ESE daylight
23 Jun - 00:52:11 10° W 00:54:27 16° SW 00:56:42 10° S daylight
23 Jun - 18:04:52 10° SW 18:08:42 41° SSE 18:12:21 10° ENE daylight
23 Jun - 19:44:19 10° W 19:48:16 72° NNW 19:52:02 10° ENE daylight
23 Jun - 21:24:21 10° WNW 21:28:09 62° N 21:31:49 10° E daylight
23 Jun - 23:04:08 10° WNW 23:07:48 55° SSW 23:11:23 10° SE daylight
24 Jun - 00:45:17 10° WSW 00:46:47 12° SW 00:48:17 10° SSW daylight
24 Jun - 16:20:25 10° SSE 16:22:03 12° SE 16:23:39 10° ESE daylight
24 Jun - 17:57:09 10° SW 18:01:06 50° SSE 18:04:52 10° ENE daylight
24 Jun - 19:36:48 10° W 19:40:44 66° N 19:44:30 10° ENE daylight
24 Jun - 21:16:49 10° WNW 21:20:38 67° N 21:24:19 10° E daylight
24 Jun - 22:56:38 10° WNW 23:00:13 45° SSW 23:03:42 10° SE daylight
